Weather History for Harrison, AR

Change the Weather History Date:

Tuesday, May 14, 2013

  Actual Average Record
Temperature  
Mean Temperature 77 °F 65 °F  
Max Temperature 88 °F 76 °F 96 °F (1911)
Min Temperature 66 °F 55 °F 34 °F (1910)
Degree Days  
Heating Degree Days 0 3  
Month to date heating degree days 115 49  
Since 1 July heating degree days 3951 3970  
Cooling Degree Days 12 3  
Month to date cooling degree days 23 32  
Year to date cooling degree days 55 69  
Growing Degree Days 28 (Base 50)    
Moisture  
Dew Point 48 °F    
Average Humidity 40    
Maximum Humidity 53    
Minimum Humidity 26    
Precipitation  
Precipitation 0.00 in 0.16 in 2.64 in (1956)
Month to date precipitation 2.51 2.30  
Year to date precipitation 15.85 15.61  
Snow  
Snow 0.00 in 0.00 in - ()
Month to date snowfall 0.1 0.0  
Since 1 July snowfall 4.7 11.5  
Snow Depth 0.00 in    
Sea Level Pressure  
Sea Level Pressure 30.00 in    
Wind  
Wind Speed 11 mph (SW)    
Max Wind Speed 24 mph    
Max Gust Speed 33 mph    
Visibility 10 miles    
Events      
T = Trace of Precipitation, MM = Missing Value Source: NWS Daily Summary

Daily Weather History Graph

Daily Weather History Graph

Search for Another Location

Airport:

Trip Planner

Search our weather history database for the weather conditions in past years. The results will help you decide how hot, cold, wet, or windy it might be!

Date:

Astronomy

May. 14, 2013 Rise Set
Actual Time 6:06 AM CDT 8:11 PM CDT
Civil Twilight 5:38 AM CDT 8:40 PM CDT
Nautical Twilight 5:03 AM CDT 9:15 PM CDT
Astronomical Twilight 4:25 AM CDT 9:52 PM CDT
Moon 9:46 AM CDT (5/14) No Moon Set
Length of Visible Light 15h 01m
Length of Day
14h 04m
Waxing Crescent, 19% of the Moon is Illuminated
May 14
Waxing Crescent
May 17
First Quarter
May 24
Full
May 31
Last Quarter
Jun 8
New

Hourly Weather History & Observations

Time (CDT) Temp. Dew Point Humidity Pressure Visibility Wind Dir Wind Speed Gust Speed Precip Events Conditions
12:53 AM 68.0 °F 50.0 °F 52% 30.03 in 10.0 mi South 4.6 mph - N/A   Clear
1:53 AM 71.1 °F 48.0 °F 44% 30.01 in 10.0 mi SW 9.2 mph - N/A   Clear
2:53 AM 71.1 °F 46.0 °F 41% 30.00 in 10.0 mi WSW 8.1 mph - N/A   Clear
3:53 AM 72.0 °F 45.0 °F 38% 29.99 in 10.0 mi WSW 12.7 mph 20.7 mph N/A   Clear
4:53 AM 72.0 °F 44.1 °F 37% 29.98 in 10.0 mi WSW 11.5 mph 23.0 mph N/A   Clear
5:53 AM 71.1 °F 44.1 °F 38% 29.99 in 10.0 mi West 15.0 mph 26.5 mph N/A   Clear
6:53 AM 72.0 °F 44.1 °F 37% 30.00 in 10.0 mi West 17.3 mph 26.5 mph N/A   Clear
7:53 AM 73.9 °F 45.0 °F 35% 30.01 in 10.0 mi West 16.1 mph 24.2 mph N/A   Clear
8:53 AM 75.0 °F 46.9 °F 37% 30.02 in 10.0 mi West 18.4 mph 32.2 mph N/A   Clear
9:53 AM 78.1 °F 48.0 °F 35% 30.03 in 10.0 mi West 13.8 mph 26.5 mph N/A   Clear
10:53 AM 81.0 °F 50.0 °F 34% 30.04 in 10.0 mi West 12.7 mph 25.3 mph N/A   Clear
11:53 AM 82.9 °F 51.1 °F 33% 30.04 in 10.0 mi WSW 11.5 mph 19.6 mph N/A   Clear
12:53 PM 84.9 °F 48.9 °F 29% 30.02 in 10.0 mi West 16.1 mph 21.9 mph N/A   Clear
1:53 PM 87.1 °F 48.0 °F 26% 30.00 in 10.0 mi WSW 17.3 mph 26.5 mph N/A   Clear
2:53 PM 88.0 °F 50.0 °F 27% 29.99 in 10.0 mi WSW 9.2 mph 20.7 mph N/A   Clear
3:53 PM 88.0 °F 48.0 °F 25% 29.98 in 10.0 mi West 13.8 mph 18.4 mph N/A   Clear
4:53 PM 87.1 °F 48.9 °F 27% 29.96 in 10.0 mi SW 11.5 mph 17.3 mph N/A   Clear
5:53 PM 86.0 °F 51.1 °F 30% 29.96 in 10.0 mi SW 8.1 mph - N/A   Clear
6:53 PM 82.9 °F 50.0 °F 32% 29.96 in 10.0 mi SSW 5.8 mph - N/A   Clear
7:53 PM 79.0 °F 48.9 °F 35% 29.96 in 10.0 mi SSW 4.6 mph - N/A   Clear
8:53 PM 75.0 °F 50.0 °F 41% 29.96 in 10.0 mi SSW 3.5 mph - N/A   Clear
9:53 PM 73.0 °F 51.1 °F 46% 29.98 in 10.0 mi South 6.9 mph - N/A   Clear
10:53 PM 71.1 °F 52.0 °F 51% 29.99 in 10.0 mi South 5.8 mph - N/A   Clear
11:53 PM 69.1 °F 52.0 °F 54% 29.99 in 10.0 mi South 5.8 mph - N/A   Clear